BULDG76 KCVS-KLSV

Flight info

Callsign BULDG76
Flight time N/A
Altitude 12000
Route FLUTY/N0163F140 ABQ ZUN FLG PGS BLD
Aircraft A10/L-SDFGR/S

Departure

Time N/A
Airport Cannon Air Force Base (KCVS)

Arrival

Time 2026-04-26 15:55
Airport Nellis Air Force Base (KLSV)
Time Latitude Longitude Altitude Speed Heading
2026-04-26 15:45 36.20563 -115.01990 15847 ft 381 kts 322°
2026-04-26 15:46 36.22972 -115.03495 15829 ft 382 kts 333°
2026-04-26 15:46 36.27591 -115.06480 15828 ft 369 kts 322°
2026-04-26 15:46 36.29706 -115.08252 15835 ft 366 kts 321°
2026-04-26 15:46 36.31110 -115.09464 15840 ft 365 kts 320°
2026-04-26 15:47 36.33872 -115.11834 15837 ft 365 kts 324°
2026-04-26 15:47 36.38533 -115.14985 14266 ft 399 kts 328°
2026-04-26 15:47 36.40996 -115.16648 13490 ft 407 kts 330°
2026-04-26 15:48 36.43802 -115.17238 12364 ft 433 kts 15°
2026-04-26 15:48 36.46148 -115.14733 10415 ft 470 kts 55°
2026-04-26 15:48 36.47980 -115.11425 9726 ft 459 kts 56°
2026-04-26 15:48 36.49721 -115.08150 9018 ft 451 kts 60°
2026-04-26 15:49 36.50293 -115.04445 8198 ft 440 kts 101°
2026-04-26 15:49 36.49686 -115.00812 8026 ft 423 kts 103°
2026-04-26 15:49 36.49167 -114.97262 7922 ft 411 kts 102°
2026-04-26 15:49 36.48693 -114.93797 7881 ft 402 kts 101°
2026-04-26 15:50 36.48157 -114.90427 7844 ft 394 kts 111°
2026-04-26 15:50 36.46366 -114.88134 7084 ft 384 kts 171°
2026-04-26 15:50 36.43859 -114.89063 5609 ft 401 kts 214°
2026-04-26 15:50 36.41641 -114.90908 6256 ft 366 kts 215°
2026-04-26 15:51 36.39546 -114.92625 6901 ft 352 kts 209°
2026-04-26 15:51 36.37255 -114.93654 6621 ft 354 kts 194°
2026-04-26 15:51 36.35039 -114.94063 6226 ft 268 kts 187°
2026-04-26 15:51 36.33167 -114.94299 5433 ft 268 kts 192°
2026-04-26 15:52 36.31654 -114.94734 4822 ft 195 kts 198°
2026-04-26 15:52 36.30596 -114.95307 4735 ft 149 kts 218°
2026-04-26 15:52 36.29836 -114.96276 4148 ft 164 kts 227°
2026-04-26 15:52 36.29320 -114.96956 3789 ft 159 kts 221°
2026-04-26 15:53 36.28296 -114.98160 3245 ft 144 kts 221°
2026-04-26 15:53 36.27579 -114.98994 2835 ft 141 kts 219°
2026-04-26 15:53 36.26881 -114.99785 2580 ft 131 kts 219°
2026-04-26 15:53 36.26187 -115.00521 2326 ft 129 kts 216°
2026-04-26 15:54 36.25491 -115.01231 2084 ft 132 kts 219°
2026-04-26 15:54 36.24785 -115.01969 1930 ft 136 kts 219°
2026-04-26 15:54 36.24061 -115.02713 1862 ft 128 kts 221°
2026-04-26 15:54 36.23493 -115.03323 1849 ft 87 kts 221°
2026-04-26 15:55 36.23155 -115.03687 1850 ft 47 kts 219°
2026-04-26 15:55 36.22947 -115.03916 1848 ft 33 kts 222°
2026-04-26 15:55 36.22792 -115.04093 1848 ft 28 kts 222°
2026-04-26 15:55 36.22654 -115.04247 1849 ft 25 kts 219°
2026-04-26 15:56 36.22548 -115.04371 1851 ft 18 kts 227°
2026-04-26 15:56 36.22567 -115.04484 1852 ft 14 kts 310°
2026-04-26 15:56 36.22635 -115.04585 1851 ft 16 kts 308°
2026-04-26 15:56 36.22700 -115.04701 1848 ft 16 kts 306°
2026-04-26 15:57 36.22759 -115.04788 1852 ft 10 kts 298°
2026-04-26 15:57 36.22732 -115.04856 1852 ft 9 kts 219°
2026-04-26 15:57 36.22717 -115.04907 1853 ft 6 kts 307°
2026-04-26 15:57 36.22734 -115.04932 1853 ft 7 kts 310°
2026-04-26 15:58 36.22765 -115.04960 1853 ft 3 kts 23°
2026-04-26 15:58 36.22774 -115.04951 1853 ft 0 kts 36°
2026-04-26 15:58 36.22775 -115.04951 1853 ft 0 kts 34°